Weather Roundup
Issued by NWS

Home | Current Version | Previous Version | Graphics & Text | Print | Product List | Glossary Off
Versions: 1 2 3 4 5 6 7 8 9 10 11 12 13 14 15 16 17 18 19 20 21 22 23 24 25 26 27 28 29 30 31 32 33 34 35 36 37 38 39 40 41 42 43 44 45 46 47 48 49 50

000
NZUS93 KARX 161210
HRRWXR

CURRENT HOURLY OBSERVATIONS ACROSS
MUCH OF THE UPPER MISSISSIPPI VALLEY
NATIONAL WEATHER SERVICE LA CROSSE WI
700 AM CDT TUE SEP 16 2014


...SOUTHEAST MINNESOTA...


CITY           SKY/WX    TMP DP  RH WIND       PRES   REMARKS
ROCHESTER      CLEAR     38  35  89 SW6       30.22S WCI  33
ROCHESTER/MAYO FAIR      43  37  80 CALM      30.22S
WINONA         FOG       39  37  93 CALM      30.22S VSB 1/4
AUSTIN         CLEAR     36  36 100 CALM      30.22S FOG
ALBERT LEA     CLEAR     39  39 100 CALM      30.22S
DODGE CENTER   PTCLDY    37  37 100 SW6       30.21S WCI  33
PRESTON        CLEAR     40  40  99 SW5       30.22S
OWATONNA       CLEAR     39  37  93 CALM      30.22R
FARIBAULT      CLEAR     39  36  87 CALM      30.21S
$$

...ELSEWHERE IN MINNESOTA...


CITY           SKY/WX    TMP DP  RH WIND       PRES   REMARKS
MINNEAPOLIS    CLEAR     43  39  86 S5        30.19S
INTNL FALLS    CLOUDY    42  40  92 SW7       29.99S
DULUTH         PTCLDY    44  35  70 W14       30.10R
RED WING       CLEAR     36  36 100 CALM      30.20S
REDWOOD FALLS  CLEAR     41  37  86 SW7       30.19S
MANKATO        CLEAR     37  34  87 S6        30.21R WCI  33
WORTHINGTON    CLEAR     37  36  93 SW6       30.22S WCI  33
FAIRMONT       CLEAR     39  36  87 SW6       30.21S WCI  35
$$

...SOUTHWEST WISCONSIN...


CITY           SKY/WX    TMP DP  RH WIND       PRES   REMARKS
LA CROSSE      FOG       45  43  93 S5        30.22S VSB 1/4
PRAIRIE DU CHI DRZL/FOG  43  42  96 CALM      30.24R VSB 1/4
BOSCOBEL       FOG       43  42  97 SW3       30.24R VSB 1/4
LONE ROCK      FOG       43  39  86 CALM      30.23S VSB<1/4
PLATTEVILLE      N/A     37  37  97 CALM      30.23S VSB<1/4
FORT MC COY    FOG       33  33 100 CALM      30.23S VSB 1/4
CAMP DOUGLAS   CLEAR     32  32 100 CALM      30.21S FOG
VIROQUA        FAIR      39  39 100 CALM      30.21S
WIS DELLS        N/A     37  36  97 CALM      30.21S FOG
$$

...ELSEWHERE IN WISCONSIN...


CITY           SKY/WX    TMP DP  RH WIND       PRES   REMARKS
MILWAUKEE      CLEAR     45  41  86 CALM      30.21R
MADISON        CLEAR     38  37  97 CALM      30.22S
GREEN BAY      CLEAR     39  38  96 W5        30.18S
EAU CLAIRE     CLEAR     38  37  97 SW5       30.19S WCI  34
BLACK RVR FLS  FOG       34  34 100 CALM      30.21S VSB<1/4
MEDFORD        CLEAR     37  36  94 CALM      30.18S
WAUSAU         CLEAR     38  36  92 CALM      30.18R
WIS RAPIDS     CLEAR     35  35 100 CALM      30.22R
MARSHFIELD     CLEAR     37  35  92 W5        30.19S WCI  33
RICE LAKE      FOG       35  34  97 CALM      30.19S VSB 3/4
$$

...NORTHEAST IOWA...


CITY           SKY/WX    TMP DP  RH WIND       PRES   REMARKS
WATERLOO       FOG       35  34  96 CALM      30.24S VSB 1/2
DUBUQUE        CLEAR     38  36  92 MISG      30.23S
DECORAH        CLEAR     37  37 100 CALM      30.22S
MASON CITY     CLEAR     36  35  96 CALM      30.24S
CHARLES CITY   FOG       37  37 100 CALM      30.24S VSB 3/4
OELWEIN        FOG       36  36 100 W3        30.25R VSB 1/4
$$

...ELSEWHERE IN IOWA...


CITY           SKY/WX    TMP DP  RH WIND       PRES   REMARKS
DES MOINES     CLEAR     44  42  93 W3        30.25S
IOWA CITY      CLEAR     41  40  96 W5        30.26R
FORT DODGE     CLEAR     36  34  93 CALM      30.24S
MARSHALLTOWN   FOG       37  36  96 CALM      30.24S VSB 1/2
CEDAR RAPIDS   CLEAR     40  40 100 NW6       30.24R FOG
$$

...NORTHERN ILLINOIS...


CITY           SKY/WX    TMP DP  RH WIND       PRES   REMARKS
CHICAGO-OHARE  PTCLDY    45  42  89 NW6       30.20R
DUPAGE         CLEAR     42  40  92 CALM      30.21R
CHICAGO-MIDWAY PTCLDY    47  45  93 CALM      30.20R
MOLINE         CLEAR     41  39  93 SW3       30.24R FOG
ROCKFORD       CLEAR     39  37  92 S3        30.24R
STERLING       CLEAR     37  34  87 CALM      30.23S
PEORIA         FOG       48  45  89 CALM      30.24R VSB 1/4
$$

NOTE: "FAIR" INDICATES FEW OR NO CLOUDS BELOW 12,000 FEET WITH NO
SIGNIFICANT WEATHER AND/OR OBSTRUCTIONS TO VISIBILITY. WIND
SPEEDS ARE IN MILES-PER-HOUR.



USA.gov is the U.S. government's official web portal to all federal, state and local government web resources and services.